Regional Weather Roundup
Issued by NWS

Home | Current Version | Previous Version | Graphics & Text | Print | Product List | Glossary On
Versions: 1 2 3 4 5 6 7 8 9 10 11 12 13 14 15 16 17 18 19 20 21 22 23 24 25 26 27 28 29 30 31 32 33 34 35 36 37 38 39 40 41 42 43 44 45 46 47 48 49 50
000
ASUS44 KMEG 020410
RWRTN
TENNESSEE HOURLY STATE WEATHER ROUNDUP
NATIONAL WEATHER SERVICE MEMPHIS TN
1100 PM CDT SUN MAY 01 2016

TNZ002-004-019-021-049-052-054-088>092-020500-
WEST TENNESSEE

CITY           SKY/WX    TMP DP  RH WIND       PRES   REMARKS
MEMPHIS INTL   PTCLDY    72  66  81 CALM      29.96S
NWS MEMPHIS      N/A     67 N/A N/A MISG        N/A
JACKSON        CLOUDY    66  63  90 CALM      29.97S
DYERSBURG      MOCLDY    68  64  88 S5          N/A
UNION CITY     PTCLDY    68  68 100 SW5       29.96S
LEXINGTON      CLEAR     64  64 100 CALM      29.97S
$$

TNZ008-025-027-028-033-062-065-066-020500-
NORTH MIDDLE TENNESSEE

CITY           SKY/WX    TMP DP  RH WIND       PRES   REMARKS
NASHVILLE      CLEAR     69  63  81 SW7       29.98R
CLARKSVILLE    CLEAR     67  63  87 SW8       29.96R
SMYRNA         CLEAR     69  64  84 W10       29.98S
COOKEVILLE     CLEAR     66  63  88 W3        29.99S
CROSSVILLE     CLEAR     67  61  81 SW5       30.02S
$$

TNZ061-075-076-078-094-096-097-020500-
SOUTH MIDDLE TENNESSEE

CITY           SKY/WX    TMP DP  RH WIND       PRES   REMARKS
FAYETTEVILLE   CLEAR     63  61  94 CALM      30.02R
TULLAHOMA      CLEAR     63  63 100 CALM      30.02R
WINCHESTER     CLEAR     63  61  94 W3        30.01S
MCMINNVILLE    CLEAR     64  63  94 SW3       30.00S
COLUMBIA       CLEAR    N/A N/A N/A CALM      29.97S
SHELBYVILLE    CLEAR     64  63  94 S6        30.01R
$$

TNZ017-018-042-046-047-020500-
NORTHEAST TENNESSEE

CITY           SKY/WX    TMP DP  RH WIND       PRES   REMARKS
TRI CITIES     PTCLDY    69  62  78 SW6       30.00F
$$

TNZ012-013-036-069-073-074-020500-
CENTRAL EAST TENNESSEE

CITY           SKY/WX    TMP DP  RH WIND       PRES   REMARKS
KNOXVILLE      CLOUDY    69  65  86 SW8       29.99F
OAK RIDGE      PTCLDY    69  63  81 CALM      30.00F
GATLINBURG     CLEAR     70  61  73 CALM      29.98F
MORRISTOWN     PTCLDY    68  64  88 W6        29.99F
$$

TNZ083-085-099-020500-
SOUTHEAST TENNESSEE

CITY           SKY/WX    TMP DP  RH WIND       PRES   REMARKS
CHATTANOOGA    PTCLDY    69  64  84 NE3       29.99F
$$

SKY/WX REPORTED AS FAIR MEANS FEW OR NO CLOUDS BELOW
12 THOUSAND FEET.





USA.gov is the U.S. government's official web portal to all federal, state and local government web resources and services.